{"data":{"norad_id":63453,"intl_designator":"2025-069W","name":"STARLINK-33784","alt_names":[],"object_type":"PAYLOAD","status":"ACTIVE","operator":null,"country":"US","launch_date":"2025-04-04","launch_site_code":"AFWTR","launch_vehicle":null,"mission":null,"orbit_class":"UNKNOWN","rcs_meters":null,"size_class":null,"mass_kg":null,"dimensions":null,"purposes":["comms"],"wikipedia_slug":null,"has_3d_model":false,"image_url":null,"decayed_at":null,"tle_current":{"epoch":"2026-05-24T23:52:02.648640Z","epoch_age_seconds":79019,"freshness":"FRESH","line1":"1 63453U 25069W   26144.99447510  .00015100  00000+0  52046-3 0  9995","line2":"2 63453  53.1596 148.3058 0001485  93.9648 266.1522 15.30228445 65085","mean_motion":15.30228445,"eccentricity":0.0001485,"inclination_deg":53.1596,"raan_deg":148.3058,"arg_perigee_deg":93.9648,"mean_anomaly_deg":266.1522,"bstar":0.00052046,"rev_number":6508,"period_min":94.10359640779,"perigee_km":474.11242892206,"apogee_km":476.14784926237,"semimajor_km":6853.2671390922,"source":"CELESTRAK","updated_at":"2026-05-25T13:38:20.002249Z"}}}